Location: Dal�� Lhota
(48.7500°N, 14.0167°E)
Time: 08:23:23
(UTC+00:00)

Explorer 7 - Pass Details

Date: 02 August 2021
Orbit: 484 x 676 km, 50.3° (Epoch: 21 September)

Event Time Altitude Azimuth Distance (km) Brightness Sun altitude
Rises 08:40:50 0° 288° (WNW) 2,669 9.9 46.7°
Reaches altitude 10° 08:43:01 10° 284° (WNW) 1,806 9.2 47.0°
Maximum altitude 08:47:03 56° 206° (SSW) 678 8.0 47.5°
Drops below altitude 10° 08:51:20 10° 128° (SE) 1,918 10.5 48.1°
Sets 08:53:43 0° 125° (SE) 2,853 11.1 48.4°
